Location: Mantua Corners
(41.3103°N, 81.2212°W)
Time: 01:04:54
(UTC+00:00)

ACS3 Solar Sail - Pass Details

Date: 09 October 2024
Orbit: 961 x 1022 km, 97.5° (Epoch: 03 November)

Event Time Altitude Azimuth Distance (km) Brightness Sun altitude
Exits shadow 01:14:54 62° 142° (SE) 1,148 1.8 -27.0°
Maximum altitude 01:16:01 78° 76° (ENE) 1,053 1.7 -27.2°
Drops below altitude 10° 01:22:27 10° 351° (N) 2,839 4.5 -28.4°
Sets 01:24:58 0° 350° (N) 3,796 5.2 -28.8°
